Location: ?????
(31.8092°N, 35.2590°E)
Time: 15:16:21
(UTC+00:00)

ATLAS 3B R/B - Pass Details

Date: 20 June 2021
Orbit: 1003 x 1191 km, 63.8° (Epoch: 21 July)

Event Time Altitude Azimuth Distance (km) Brightness Sun altitude
Rises 18:06:32 0° 199° (SSW) 3,713 5.3 -14.7°
Reaches altitude 10° 18:09:07 10° 197° (SSW) 2,764 4.6 -15.1°
Maximum altitude 18:15:31 68° 116° (ESE) 1,083 2.5 -16.1°
Drops below altitude 10° 18:22:04 10° 35° (NE) 2,827 5.0 -17.2°
Sets 18:24:44 0° 33° (NNE) 3,804 5.7 -17.6°
